Weather in Pervomaiske

Ukraine / Donetsk Region     47°25′31″N   38°07′03″E
temp.,
°C
wind,
m/s
gust,
m/s
humid.,
%
clouds,
%
prec.,
mm/h
press.,
hPa
HPBL,
m
25 january, mon
mon2523:000se51091100 0.0 1016317
02:000se5987100 0.0 1015262
05:000ese488977 0.1 1015192
08:00+1ese479054 0.1 1014186
11:00+4se478718 0.0 1015283
14:00+4se598811 0.0 1013305
17:00+2ese510841 0.0 1013197
20:00+2ese6137450 0.0 1011263
26 january, tue
tue2623:00+2se61570100 0.0 1010327
02:00+3sse71777100 0.1 1009408
05:00+5ssw81596100 1.6 1010539
08:00+2ssw4118264 1.6 1013249
11:00+4s497875 0.0 1014354
14:00+5s4108687 0.0 1013297
17:00+3sse4793100 0.0 1013126
20:00+4se51292100 0.0 1012273
27 january, wed
wed2723:00+3sse51284100 0.0 1012267
02:00+2se3688100 0.0 1012116
05:00+3se4789100 0.0 1010147
08:00+3se41185100 0.0 1009248
11:00+6se51275100 0.0 1009289
14:00+6ese61171100 0.0 1007283
17:00+4ese51280100 0.0 1007354
20:00+3e71385100 0.0 1006399
28 january, thu
thu2823:00+3ese61191100 0.0 1005342
02:00+2ese4994100 0.0 1004267
05:00+1ese51095100 0.0 1003266
08:00+2ese51195100 0.0 1004282
11:00+5se5979100 0.0 1005412
14:00+7sse348399 0.0 1005247
17:00+5ssw2293100 0.0 100629
20:00+4ssw3592100 0.0 1007134
29 january, fri
fri2923:00+3ssw2396100 0.0 100751
02:00+1wsw1295100 0.0 100722
05:00+1nw2381100 0.0 100739
08:00+1w117667 0.0 100722
11:00+4s356523 0.0 1007672
14:00+4ssw587160 0.0 1006844
17:00+1ssw378439 0.0 1006198
20:00+1sw5119035 0.0 1007458